Location: East Guldeford
(50.9500°N, 0.7500°E)
Time: 09:56:02
(UTC+00:00)

Cosmos 1898 Rocket - Pass Details

Date: 12 May 2021
Orbit: 753 x 784 km, 74.0° (Epoch: 16 June)

Event Time Altitude Azimuth Distance (km) Brightness Sun altitude
Exits shadow 22:10:33 25° 184° (S) 1,533 4.6 -17.1°
Maximum altitude 22:13:36 65° 110° (ESE) 862 3.5 -17.3°
Drops below altitude 10° 22:18:54 10° 29° (NNE) 2,351 6.5 -17.6°
Sets 22:21:19 0° 27° (NNE) 3,285 7.4 -17.8°
